sat.trackr.live / text

‹ back to catalog

STARLINK-2593

NORAD 48404 · 2021-038BD

PAYLOAD ACTIVE UNKNOWN

§ Identity

Operator
Country
US
Launch date
2021-05-04
Launch site
AFETR
Launch vehicle
Mass (kg)
RCS (m²)

Purposes: comms

External: N2YO · Heavens-Above · Gunter

§ Orbital elements

Epoch: 2026-09-08T06:57:56.532960Z

Period
94.01 min
Inclination
53.1592°
Eccentricity
0.0001573
Mean motion
15.31720555 rev/d
Perigee alt
469.6 km
Apogee alt
471.8 km
Semi-major
6,848.8 km
B*
5.2477e-5
RAAN
202.9001°
Arg perigee
87.8772°
Mean anomaly
272.2409°
Rev number
29,542

§ Raw data

STARLINK-25931 48404U 21038BD  26251.29023765  .00001264  00000+0  52477-4 0  99952 48404  53.1592 202.9001 0001573  87.8772 272.2409 15.31720555295428

JSON: /api/v1/satellites/48404 · /tle

For live sub-satellite position, see the globe view (requires WebGL).

§ Visibility from observer

Set your observer location to see the next 7 days of passes ≥ 10°. The values pass through the URL so the page stays shareable.

No JS? Fill the form by hand. The geolocation button needs JavaScript.